| time (UTC) | temp C | wind direction | speed KPH | gust KPH | rain 1hr cm | rain 24hr cm | rain mn cm | humidity % | barometer mb |
| 20260505041420 | 15 | 228 | 0.0 | 1.6 | 0.00 | 0.00 | 0.00 | 99 | 1006.0 |
| 20260505040920 | 15 | 293 | 0.0 | 6.4 | 0.00 | 0.00 | 0.00 | 99 | 1005.1 |
| 20260505040420 | 15 | 266 | 0.0 | 6.4 | 0.00 | 0.00 | 0.00 | 99 | 1005.0 |
| 20260505035920 | 15 | 216 | 0.0 | 0.0 | 0.00 | 0.00 | 0.00 | 99 | 1005.0 |
| 20260505035420 | 15 | 270 | 0.0 | 0.0 | 0.00 | 0.00 | 0.00 | 99 | 1005.0 |
| 20260505034920 | 15 | 233 | 0.0 | 0.0 | 0.00 | 0.00 | 0.00 | 99 | 1005.0 |
| 20260505034420 | 15 | 235 | 0.0 | 0.0 | 0.00 | 0.00 | 0.00 | 99 | 1005.0 |
| 20260505033920 | 15 | 310 | 0.0 | 0.0 | 0.00 | 0.00 | 0.00 | 99 | 1005.2 |
| 20260505033420 | 14 | 269 | 0.0 | 0.0 | 0.00 | 0.00 | 0.00 | 99 | 1005.1 |
| 20260505032920 | 13 | 211 | 0.0 | 0.0 | 0.00 | 0.00 | 0.00 | 99 | 1005.2 |
| 20260505032420 | 13 | 287 | 0.0 | 1.6 | 0.00 | 0.00 | 0.00 | 99 | 1006.0 |
| 20260505031920 | 13 | 256 | 0.0 | 1.6 | 0.00 | 0.00 | 0.00 | 99 | 1006.0 |
| 20260505031420 | 13 | 31 | 0.0 | 0.0 | 0.00 | 0.00 | 0.00 | 99 | 1005.2 |
| 20260505030920 | 14 | 27 | 0.0 | 0.0 | 0.00 | 0.00 | 0.00 | 99 | 1005.2 |
| 20260505030420 | 14 | 282 | 0.0 | 0.0 | 0.00 | 0.00 | 0.00 | 99 | 1005.2 |
| 20260505025920 | 15 | 54 | 0.0 | 0.0 | 0.00 | 0.00 | 0.00 | 99 | 1005.2 |
| 20260505025420 | 15 | 210 | 0.0 | 0.0 | 0.00 | 0.00 | 0.00 | 99 | 1005.2 |
| 20260505024920 | 15 | 210 | 0.0 | 0.0 | 0.00 | 0.00 | 0.00 | 99 | 1005.1 |
| 20260505024420 | 14 | 208 | 0.0 | 0.0 | 0.00 | 0.00 | 0.00 | 99 | 1005.2 |
| 20260505023920 | 14 | 165 | 0.0 | 0.0 | 0.00 | 0.00 | 0.00 | 99 | 1006.0 |
| 20260505023420 | 14 | 227 | 0.0 | 0.0 | 0.00 | 0.00 | 0.00 | 99 | 1006.0 |
| 20260505022920 | 14 | 205 | 0.0 | 0.0 | 0.00 | 0.00 | 0.00 | 99 | 1006.0 |
| 20260505022420 | 14 | 208 | 0.0 | 0.0 | 0.00 | 0.00 | 0.00 | 99 | 1006.0 |
| 20260505021920 | 13 | 224 | 0.0 | 0.0 | 0.00 | 0.00 | 0.00 | 99 | 1005.2 |
| 20260505021420 | 13 | 213 | 0.0 | 3.2 | 0.00 | 0.00 | 0.00 | 99 | 1005.2 |
| 20260505020920 | 13 | 227 | 0.0 | 3.2 | 0.00 | 0.00 | 0.00 | 99 | 1006.0 |
| 20260505020420 | 13 | 234 | 0.0 | 0.0 | 0.00 | 0.00 | 0.00 | 99 | 1006.0 |
| 20260505015920 | 13 | 216 | 0.0 | 0.0 | 0.00 | 0.00 | 0.00 | 99 | 1006.0 |
| 20260505015420 | 13 | 247 | 0.0 | 0.0 | 0.00 | 0.00 | 0.00 | 99 | 1006.0 |
| 20260505014920 | 13 | 235 | 0.0 | 0.0 | 0.00 | 0.00 | 0.00 | 99 | 1006.0 |
| 20260505014420 | 13 | 201 | 0.0 | 0.0 | 0.00 | 0.00 | 0.00 | 99 | 1005.2 |
| 20260505013920 | 13 | 208 | 0.0 | 0.0 | 0.00 | 0.00 | 0.00 | 99 | 1005.2 |
| 20260505013420 | 13 | 222 | 0.0 | 0.0 | 0.00 | 0.00 | 0.00 | 99 | 1005.1 |
| 20260505012920 | 13 | 219 | 0.0 | 0.0 | 0.00 | 0.00 | 0.00 | 99 | 1005.0 |
| 20260505012420 | 13 | 201 | 0.0 | 0.0 | 0.00 | 0.00 | 0.00 | 99 | 1005.0 |
| 20260505011920 | 13 | 190 | 0.0 | 0.0 | 0.00 | 0.00 | 0.00 | 99 | 1005.0 |
| 20260505011420 | 13 | 179 | 0.0 | 0.0 | 0.00 | 0.00 | 0.00 | 99 | 1005.0 |
| 20260505010920 | 13 | 168 | 0.0 | 0.0 | 0.00 | 0.00 | 0.00 | 99 | 1005.0 |
| 20260505010420 | 13 | 226 | 0.0 | 0.0 | 0.00 | 0.00 | 0.00 | 99 | 1005.0 |
| 20260505005920 | 13 | 166 | 0.0 | 0.0 | 0.00 | 0.00 | 0.00 | 99 | 1005.0 |
| 20260505005420 | 14 | 242 | 0.0 | 0.0 | 0.00 | 0.00 | 0.00 | 99 | 1005.0 |
| 20260505004920 | 14 | 205 | 0.0 | 0.0 | 0.00 | 0.00 | 0.00 | 99 | 1005.0 |
| 20260505004420 | 14 | 209 | 0.0 | 0.0 | 0.00 | 0.00 | 0.00 | 99 | 1005.0 |
| 20260505003920 | 15 | 180 | 0.0 | 0.0 | 0.00 | 0.00 | 0.00 | 99 | 1005.0 |
| 20260505003420 | 15 | 180 | 0.0 | 0.0 | 0.00 | 0.00 | 0.00 | 99 | 1005.0 |
| 20260505002920 | 15 | 148 | 0.0 | 0.0 | 0.00 | 0.00 | 0.00 | 99 | 1005.0 |
| 20260505002420 | 16 | 174 | 0.0 | 0.0 | 0.00 | 0.00 | 0.00 | 99 | 1005.0 |
| 20260505001920 | 16 | 179 | 0.0 | 0.0 | 0.00 | 0.00 | 0.00 | 99 | 1005.0 |
| 20260505001420 | 17 | 180 | 0.0 | 0.0 | 0.00 | 0.00 | 0.00 | 99 | 1005.0 |
| 20260505000920 | 17 | 196 | 0.0 | 0.0 | 0.00 | 0.00 | 0.00 | 99 | 1005.0 |
| 20260505000420 | 18 | 211 | 0.0 | 3.2 | 0.00 | 0.00 | 0.00 | 99 | 1005.0 |
| 20260504235920 | 18 | 176 | 0.0 | 3.2 | 0.00 | 0.00 | 0.00 | 99 | 1004.2 |
| 20260504235420 | 20 | 222 | 0.0 | 1.6 | 0.00 | 0.00 | 0.00 | 99 | 1005.0 |
| 20260504234920 | 20 | 32 | 0.0 | 4.8 | 0.00 | 0.00 | 0.00 | 99 | 1005.0 |
| 20260504234420 | 20 | 315 | 0.0 | 4.8 | 0.00 | 0.00 | 0.00 | 99 | 1004.2 |
| 20260504233920 | 21 | 267 | 0.0 | 4.8 | 0.00 | 0.00 | 0.00 | 99 | 1005.0 |
| 20260504233420 | 21 | 261 | 0.0 | 11.3 | 0.00 | 0.00 | 0.00 | 99 | 1004.2 |
| 20260504232920 | 21 | 8 | 0.0 | 11.3 | 0.00 | 0.00 | 0.00 | 99 | 1005.0 |
| 20260504232420 | 22 | 357 | 0.0 | 3.2 | 0.00 | 0.00 | 0.00 | 99 | 1004.2 |
| 20260504231920 | 23 | 86 | 0.0 | 4.8 | 0.00 | 0.00 | 0.00 | 99 | 1005.0 |
| 20260504231420 | 23 | 356 | 0.0 | 4.8 | 0.00 | 0.00 | 0.00 | 99 | 1005.0 |
| 20260504230920 | 25 | 319 | 0.0 | 4.8 | 0.00 | 0.00 | 0.00 | 99 | 1004.2 |
| 20260504230420 | 25 | 281 | 0.0 | 4.8 | 0.00 | 0.00 | 0.00 | 99 | 1004.1 |
| 20260504225919 | 26 | 317 | 0.0 | 4.8 | 0.00 | 0.00 | 0.00 | 99 | 1004.0 |
| 20260504225420 | 26 | 320 | 0.0 | 3.2 | 0.00 | 0.00 | 0.00 | 99 | 1004.1 |
| 20260504224920 | 26 | 313 | 0.0 | 3.2 | 0.00 | 0.00 | 0.00 | 99 | 1004.0 |
| 20260504224420 | 27 | 317 | 0.0 | 0.0 | 0.00 | 0.00 | 0.00 | 99 | 1004.0 |
| 20260504223920 | 27 | 313 | 0.0 | 4.8 | 0.00 | 0.00 | 0.00 | 99 | 1004.0 |
| 20260504223420 | 28 | 313 | 0.0 | 4.8 | 0.00 | 0.00 | 0.00 | 99 | 1004.0 |
| 20260504222919 | 28 | 270 | 0.0 | 4.8 | 0.00 | 0.00 | 0.00 | 99 | 1004.0 |
| 20260504222419 | 28 | 3 | 0.0 | 0.0 | 0.00 | 0.00 | 0.00 | 99 | 1004.0 |
| 20260504221920 | 28 | 256 | 0.0 | 0.0 | 0.00 | 0.00 | 0.00 | 99 | 1004.0 |
| 20260504221420 | 28 | 263 | 0.0 | 0.0 | 0.00 | 0.00 | 0.00 | 99 | 1004.0 |
| 20260504220919 | 28 | 268 | 0.0 | 0.0 | 0.00 | 0.00 | 0.00 | 99 | 1004.0 |
| 20260504220419 | 28 | 185 | 0.0 | 0.0 | 0.00 | 0.00 | 0.00 | 99 | 1004.0 |
| 20260504215919 | 28 | 278 | 0.0 | 4.8 | 0.00 | 0.00 | 0.00 | 99 | 1004.0 |
| 20260504215419 | 28 | 236 | 0.0 | 4.8 | 0.00 | 0.00 | 0.00 | 99 | 1004.0 |
| 20260504214919 | 28 | 275 | 0.0 | 0.0 | 0.00 | 0.00 | 0.00 | 99 | 1004.1 |
| 20260504214419 | 28 | 310 | 0.0 | 0.0 | 0.00 | 0.00 | 0.00 | 99 | 1004.1 |
| 20260504213919 | 28 | 310 | 0.0 | 0.0 | 0.00 | 0.00 | 0.00 | 99 | 1004.2 |
| 20260504213420 | 28 | 275 | 0.0 | 0.0 | 0.00 | 0.00 | 0.00 | 99 | 1004.1 |
| 20260504212919 | 28 | 316 | 0.0 | 0.0 | 0.00 | 0.00 | 0.00 | 99 | 1004.2 |
| 20260504212419 | 28 | 277 | 0.0 | 0.0 | 0.00 | 0.00 | 0.00 | 99 | 1004.2 |
| 20260504211919 | 27 | 276 | 0.0 | 14.5 | 0.00 | 0.00 | 0.00 | 99 | 1005.0 |
| 20260504211419 | 27 | 273 | 1.6 | 14.5 | 0.00 | 0.00 | 0.00 | 99 | 1005.0 |
| 20260504210919 | 28 | 287 | 0.0 | 0.0 | 0.00 | 0.00 | 0.00 | 99 | 1005.0 |
| 20260504210419 | 29 | 313 | 0.0 | 0.0 | 0.00 | 0.00 | 0.00 | 99 | 1004.2 |
| 20260504205919 | 28 | 281 | 0.0 | 1.6 | 0.00 | 0.00 | 0.00 | 99 | 1005.0 |
| 20260504205419 | 27 | 264 | 0.0 | 1.6 | 0.00 | 0.00 | 0.00 | 99 | 1004.2 |
| 20260504204919 | 27 | 290 | 0.0 | 0.0 | 0.00 | 0.00 | 0.00 | 99 | 1005.0 |
| 20260504204419 | 27 | 346 | 0.0 | 0.0 | 0.00 | 0.00 | 0.00 | 99 | 1005.0 |
| 20260504203919 | 27 | 308 | 0.0 | 0.0 | 0.00 | 0.00 | 0.00 | 99 | 1005.0 |
| 20260504203420 | 28 | 51 | 0.0 | 8.0 | 0.00 | 0.00 | 0.00 | 99 | 1005.0 |
| 20260504202919 | 27 | 45 | 1.6 | 8.0 | 0.00 | 0.00 | 0.00 | 99 | 1005.0 |
| 20260504202419 | 26 | 314 | 0.0 | 6.4 | 0.00 | 0.00 | 0.00 | 99 | 1005.0 |
| 20260504201919 | 26 | 345 | 0.0 | 0.0 | 0.00 | 0.00 | 0.00 | 99 | 1005.0 |
| 20260504201419 | 26 | 1 | 0.0 | 0.0 | 0.00 | 0.00 | 0.00 | 99 | 1005.0 |
| 20260504200919 | 27 | 358 | 0.0 | 0.0 | 0.00 | 0.00 | 0.00 | 99 | 1005.0 |
| 20260504200419 | 27 | 279 | 0.0 | 3.2 | 0.00 | 0.00 | 0.00 | 99 | 1005.0 |
| 20260504195919 | 30 | 283 | 0.0 | 3.2 | 0.00 | 0.00 | 0.00 | 99 | 1005.0 |
| 20260504195419 | 31 | 354 | 0.0 | 1.6 | 0.00 | 0.00 | 0.00 | 99 | 1005.0 |
| 20260504194919 | 31 | 7 | 0.0 | 0.0 | 0.00 | 0.00 | 0.00 | 99 | 1005.0 |
| 20260504194419 | 31 | 299 | 0.0 | 0.0 | 0.00 | 0.00 | 0.00 | 99 | 1005.0 |
| 20260504193919 | 30 | 359 | 0.0 | 6.4 | 0.00 | 0.00 | 0.00 | 99 | 1005.0 |
| 20260504193419 | 30 | 316 | 0.0 | 6.4 | 0.00 | 0.00 | 0.00 | 99 | 1005.0 |
| 20260504192919 | 28 | 302 | 0.0 | 0.0 | 0.00 | 0.00 | 0.00 | 99 | 1005.0 |
| 20260504192419 | 27 | 315 | 0.0 | 4.8 | 0.00 | 0.00 | 0.00 | 99 | 1005.0 |
| 20260504191919 | 26 | 3 | 0.0 | 4.8 | 0.00 | 0.00 | 0.00 | 99 | 1005.0 |
| 20260504191419 | 25 | 274 | 0.0 | 9.7 | 0.00 | 0.00 | 0.00 | 99 | 1005.0 |
| 20260504190919 | 26 | 4 | 0.0 | 9.7 | 0.00 | 0.00 | 0.00 | 99 | 1005.0 |
| 20260504190419 | 27 | 356 | 0.0 | 8.0 | 0.00 | 0.00 | 0.00 | 99 | 1005.0 |
| 20260504185919 | 28 | 36 | 0.0 | 3.2 | 0.00 | 0.00 | 0.00 | 99 | 1005.0 |
| 20260504185419 | 28 | 35 | 0.0 | 6.4 | 0.00 | 0.00 | 0.00 | 99 | 1005.0 |
| 20260504184919 | 28 | 8 | 0.0 | 6.4 | 0.00 | 0.00 | 0.00 | 99 | 1005.0 |
| 20260504184419 | 29 | 46 | 0.0 | 3.2 | 0.00 | 0.00 | 0.00 | 99 | 1005.0 |
| 20260504183919 | 30 | 331 | 0.0 | 11.3 | 0.00 | 0.00 | 0.00 | 99 | 1005.0 |
| 20260504183419 | 30 | 13 | 0.0 | 11.3 | 0.00 | 0.00 | 0.00 | 99 | 1005.0 |
| 20260504182919 | 30 | 40 | 0.0 | 0.0 | 0.00 | 0.00 | 0.00 | 99 | 1005.0 |
| 20260504182419 | 29 | 306 | 0.0 | 0.0 | 0.00 | 0.00 | 0.00 | 99 | 1005.0 |
| 20260504181919 | 28 | 353 | 0.0 | 6.4 | 0.00 | 0.00 | 0.00 | 99 | 1005.0 |
| 20260504181419 | 28 | 273 | 0.0 | 8.0 | 0.00 | 0.00 | 0.00 | 99 | 1005.0 |
| 20260504180919 | 28 | 307 | 0.0 | 12.9 | 0.00 | 0.00 | 0.00 | 99 | 1005.0 |
| 20260504180419 | 29 | 1 | 0.0 | 12.9 | 0.00 | 0.00 | 0.00 | 99 | 1005.0 |
| 20260504175419 | 28 | 322 | 0.0 | 8.0 | 0.00 | 0.00 | 0.00 | 99 | 1005.0 |
| 20260504174919 | 27 | 38 | 0.0 | 11.3 | 0.00 | 0.00 | 0.00 | 99 | 1005.0 |
| 20260504174419 | 26 | 321 | 1.6 | 11.3 | 0.00 | 0.00 | 0.00 | 99 | 1005.0 |
| 20260504173919 | 26 | 42 | 0.0 | 11.3 | 0.00 | 0.00 | 0.00 | 99 | 1005.0 |
| 20260504173419 | 27 | 278 | 0.0 | 4.8 | 0.00 | 0.00 | 0.00 | 99 | 1005.0 |
| 20260504172919 | 27 | 310 | 0.0 | 0.0 | 0.00 | 0.00 | 0.00 | 99 | 1005.0 |
| 20260504172419 | 27 | 311 | 0.0 | 1.6 | 0.00 | 0.00 | 0.00 | 99 | 1005.0 |
| 20260504171919 | 27 | 3 | 0.0 | 3.2 | 0.00 | 0.00 | 0.00 | 99 | 1005.1 |
| 20260504171419 | 27 | 353 | 0.0 | 9.7 | 0.00 | 0.00 | 0.00 | 99 | 1006.0 |
| 20260504170919 | 26 | 316 | 0.0 | 9.7 | 0.00 | 0.00 | 0.00 | 99 | 1005.2 |
| 20260504170419 | 25 | 274 | 0.0 | 0.0 | 0.00 | 0.00 | 0.00 | 99 | 1005.2 |
| 20260504160419 | 22 | 359 | 0.0 | 8.0 | 0.00 | 0.00 | 0.00 | 99 | 1006.0 |
| 20260504150919 | 19 | 354 | 0.0 | 8.0 | 0.00 | 0.00 | 0.00 | 99 | 1006.0 |
| 20260504150419 | 19 | 8 | 1.6 | 8.0 | 0.00 | 0.00 | 0.00 | 99 | 1006.0 |
| 20260504140919 | 21 | 6 | 1.6 | 16.1 | 0.00 | 0.00 | 0.00 | 99 | 1006.2 |
| 20260504140419 | 21 | 317 | 0.0 | 16.1 | 0.00 | 0.00 | 0.00 | 99 | 1007.0 |
| 20260504130419 | 17 | 220 | 0.0 | 0.0 | 0.00 | 0.00 | 0.00 | 99 | 1006.2 |
| 20260504110419 | 2 | 243 | 0.0 | 0.0 | 0.00 | 0.00 | 0.00 | 99 | 1007.0 |
| 20260504100419 | 0 | 155 | 0.0 | 0.0 | 0.00 | 0.00 | 0.00 | 99 | 1007.0 |
| 20260504081918 | 2 | 167 | 0.0 | 0.0 | 0.00 | 0.00 | 0.00 | 99 | 1007.0 |
| 20260504081418 | 2 | 274 | 0.0 | 0.0 | 0.00 | 0.00 | 0.00 | 99 | 1007.0 |
| 20260504080918 | 2 | 164 | 0.0 | 0.0 | 0.00 | 0.00 | 0.00 | 99 | 1007.0 |
| 20260504080418 | 2 | 179 | 0.0 | 0.0 | 0.00 | 0.00 | 0.00 | 99 | 1007.0 |
| 20260504050418 | 5 | 178 | 0.0 | 0.0 | 0.00 | 0.00 | 0.00 | 99 | 1008.0 |
| 20260504045918 | 5 | 90 | 0.0 | 0.0 | 0.00 | 0.00 | 0.00 | 99 | 1008.0 |